Regional Weather Roundup
Issued by NWS

Home | Current Version | Previous Version | Graphics & Text | Print | Product List | Glossary On
Versions: 1 2 3 4 5 6 7 8 9 10 11 12 13 14 15 16 17 18 19 20 21 22 23 24 25 26 27 28 29 30 31 32 33 34 35 36 37 38 39 40 41 42 43 44 45 46 47 48 49 50
000
ASUS43 KLSX 042007
RWRMO

WEATHER SUMMARY FOR MISSOURI
NATIONAL WEATHER SERVICE SPRINGFIELD MO
300 PM CDT SAT JUL 04 2015

NOTE: "FAIR" INDICATES FEW OR NO CLOUDS BELOW 12,000 FEET WITH NO
       SIGNIFICANT WEATHER AND/OR OBSTRUCTIONS TO VISIBILITY.
       CURRENT SKY AND/OR WEATHER CONDITIONS ARE NOT AVAILABLE FOR
       CHILLICOTHE AND FARMINGTON.

MOZ001>031-035>038-043-044-053-054-042100-
...NORTHERN AND WESTERN MISSOURI...

CITY           SKY/WX    TMP DP  RH WIND       PRES   REMARKS
KANSAS CTY INT PTSUNNY   80  63  55 S7        29.99F
KANSAS C DTWN  MOSUNNY   83  60  45 S9        29.98F
LEE`S SUMMIT   SUNNY     81  62  52 SE6       30.00F
ST JOSEPH      SUNNY     81  61  50 VRB6      29.99S
CHILLICOTHE      N/A     81  61  50 SW5       30.00F
KIRKSVILLE     SUNNY     81  59  47 CALM      30.02F

$$
MOZ066>068-077>081-088>096-101>105-042100-
...SOUTHWEST MISSOURI...

CITY           SKY/WX    TMP DP  RH WIND       PRES   REMARKS
SPRINGFIELD    PTSUNNY   83  63  50 CALM      29.99S
JOPLIN         MOSUNNY   85  67  54 E6        29.98F

$$
MOZ032>034-039>042-045>050-055>058-069>072-042100-
...CENTRAL MISSOURI...

CITY           SKY/WX    TMP DP  RH WIND       PRES   REMARKS
COLUMBIA       SUNNY     81  64  56 SE7       30.00F
JEFFERSON CITY SUNNY     82  62  50 S6        29.98F
ROLLA          MOSUNNY   81  65  58 E6        29.99F
SEDALIA        SUNNY     82  64  54 S6        30.01F
WHITEMAN AFB   SUNNY     82  63  51 VRB2      29.99F
WARRENSBURG    SUNNY     81  63  54 CALM      30.00S
OSAGE BEACH    MOSUNNY   82  61  47 S3        30.00S

$$
MOZ051-052-059>065-042100-
...EAST CENTRAL MISSOURI...

CITY           SKY/WX    TMP DP  RH WIND       PRES   REMARKS
ST LOUIS INTL  MOSUNNY   83  59  44 SE3       30.00F
SPIRIT OF STL  PTSUNNY   82  63  52 CALM      29.99F
ST CHARLES     SUNNY     82  60  47 E6        29.99F

$$
MOZ072>076-082>087-097>100-106>115-042100-
...SOUTH CENTRAL AND SOUTHEAST MISSOURI...

CITY           SKY/WX    TMP DP  RH WIND       PRES   REMARKS
CAPE GIRARDEAU MOSUNNY  N/A N/A N/A E6        29.97S
FARMINGTON     PTSUNNY   81  64  57 NE5       30.04S
POPLAR BLUFF   CLOUDY    81  69  67 VRB5      29.97F
WEST PLAINS    PTSUNNY   81  67  62 VRB7      30.01F

$$



USA.gov is the U.S. government's official web portal to all federal, state and local government web resources and services.